Rolla, MO

7:02 PM CDT on June 21, 2018 (GMT -0500)
Rolla National

Weather History for KVIH - September, 2017

Change the Weather History Date:

Thursday, September 14, 2017

  Actual Average Record
Temperature  
Mean Temperature 72 °F 68 °F  
Max Temperature 87 °F 79 °F 99 °F (1971)
Min Temperature 56 °F 57 °F 36 °F (1902)
Degree Days  
Heating Degree Days 0 1  
Month to date heating degree days 13 8  
Since 1 July heating degree days 14 11  
Cooling Degree Days 7 5  
Month to date cooling degree days 49 92  
Year to date cooling degree days 1019 1169  
Growing Degree Days 20 (Base 50)    
Moisture  
Dew Point 54 °F    
Average Humidity 61    
Maximum Humidity 93    
Minimum Humidity 29    
Precipitation  
Precipitation 0.00 in 0.14 in 4.43 in (2008)
Month to date precipitation T 2.03  
Year to date precipitation 38.60 31.58  
Sea Level Pressure  
Sea Level Pressure 29.87 in    
Wind  
Wind Speed 7 mph (SSW)    
Max Wind Speed 12 mph    
Max Gust Speed 21 mph    
Visibility 10 miles    
Events      
T = Trace of Precipitation, MM = Missing Value Source: NWS Daily Summary

Daily Weather History Graph

Daily Weather History Graph

Search for Another Location

Airport or City:

Astronomy

Sep. 14, 2017 Rise Set
Actual Time 6:48 AM CDT 7:16 PM CDT
Civil Twilight 6:21 AM CDT 7:42 PM CDT
Nautical Twilight 5:50 AM CDT 8:13 PM CDT
Astronomical Twilight 5:18 AM CDT 8:45 PM CDT
Moon 12:49 AM CDT (9/14) 3:29 PM CDT (9/14)
Length of Visible Light 13h 20m
Length of Day
12h 28m
Waning Crescent, 34% of the Moon is Illuminated
Sep 14
Waning Crescent
Sep 20
New
Sep 27
First Quarter
Oct 5
Full
Oct 12
Last Quarter

Hourly Weather History & Observations

Time (CDT) Temp. Heat Index Dew Point Humidity Pressure Visibility Wind Dir Wind Speed Gust Speed Precip Events Conditions
12:53 AM 60.1 °F - 54.0 °F 80% 29.82 in 10.0 mi SSW 3.5 mph - N/A   Clear
1:53 AM 59.0 °F - 54.0 °F 83% 29.82 in 10.0 mi SSW 4.6 mph - N/A   Clear
2:53 AM 57.9 °F - 53.1 °F 84% 29.83 in 10.0 mi SSW 5.8 mph - N/A   Clear
3:53 AM 57.0 °F - 53.1 °F 87% 29.84 in 10.0 mi SSW 9.2 mph - N/A   Clear
4:53 AM 57.9 °F - 53.1 °F 84% 29.85 in 10.0 mi SW 9.2 mph - N/A   Clear
5:53 AM 55.9 °F - 53.1 °F 90% 29.86 in 10.0 mi SSW 9.2 mph - N/A   Clear
6:53 AM 57.0 °F - 55.0 °F 93% 29.88 in 10.0 mi SW 6.9 mph - N/A   Clear
7:53 AM 62.1 °F - 57.9 °F 86% 29.89 in 10.0 mi SSW 5.8 mph - N/A   Clear
8:53 AM 66.9 °F - 57.9 °F 73% 29.90 in 10.0 mi SW 5.8 mph - N/A   Clear
9:53 AM 73.0 °F - 57.0 °F 57% 29.92 in 10.0 mi SW 8.1 mph - N/A   Clear
10:53 AM 77.0 °F - 54.0 °F 45% 29.91 in 10.0 mi WSW 6.9 mph - N/A   Clear
11:53 AM 80.1 °F 79.9 °F 53.1 °F 39% 29.91 in 10.0 mi SW 6.9 mph - N/A   Clear
12:53 PM 82.0 °F 81.2 °F 53.1 °F 37% 29.90 in 10.0 mi Variable 5.8 mph - N/A   Clear
1:53 PM 84.0 °F 82.6 °F 54.0 °F 35% 29.88 in 10.0 mi SW 8.1 mph - N/A   Clear
2:53 PM 84.9 °F - 51.1 °F 31% 29.86 in 10.0 mi SW 5.8 mph - N/A   Clear
3:53 PM 86.0 °F - 50.0 °F 29% 29.85 in 10.0 mi SW 3.5 mph - N/A   Clear
4:53 PM 86.0 °F - 51.1 °F 30% 29.85 in 10.0 mi South 6.9 mph - N/A   Clear
5:53 PM 84.0 °F - 52.0 °F 33% 29.86 in 10.0 mi WSW 5.8 mph - N/A   Clear
6:53 PM 77.0 °F - 57.0 °F 50% 29.87 in 10.0 mi SW 3.5 mph - N/A   Clear
7:53 PM 66.0 °F - 55.0 °F 68% 29.88 in 10.0 mi ESE 3.5 mph - N/A   Clear
8:53 PM 70.0 °F - 52.0 °F 53% 29.89 in 10.0 mi SSE 8.1 mph - N/A   Clear
9:53 PM 70.0 °F - 52.0 °F 53% 29.89 in 10.0 mi SE 9.2 mph - N/A   Clear
10:53 PM 69.1 °F - 55.0 °F 61% 29.90 in 10.0 mi SE 9.2 mph - N/A   Clear
11:53 PM 66.9 °F - 55.9 °F 68% 29.89 in 10.0 mi SSE 8.1 mph - N/A   Clear